Location: Canet
(43.3261°N, 5.3723°E)
Time: 19:30:23
(UTC+00:00)

SJ-11-01 - Pass Details

Date: 24 January 2021
Orbit: 685 x 700 km, 98.0° (Epoch: 08 March)

Event Time Altitude Azimuth Distance (km) Brightness Sun altitude
Rises 18:10:05 0° 156° (SSE) 3,053 7.5 -16.4°
Reaches altitude 10° 18:12:20 10° 153° (SSE) 2,139 6.7 -16.8°
Maximum altitude 18:16:57 62° 74° (ENE) 776 4.2 -17.6°
Drops below altitude 10° 18:21:35 10° 354° (N) 2,146 6.8 -18.4°
Sets 18:23:51 0° 351° (N) 3,065 7.6 -18.8°
